| time (UTC) | temp F | wind direction | speed knots | gust knots | rain 1hr in | rain 24hr in | rain mn in | humidity % | barometer mb |
| 20260504231815 | 72 | 264 | 0.0 | 1.7 | 0.00 | 0.00 | 0.00 | 34 | 1007.5 |
| 20260504230332 | 72 | 262 | 0.9 | 3.5 | 0.00 | 0.00 | 0.00 | 36 | 1007.6 |
| 20260504224822 | 73 | 273 | 2.6 | 7.8 | 0.00 | 0.00 | 0.00 | 34 | 1007.6 |
| 20260504223315 | 74 | 245 | 1.7 | 5.2 | 0.00 | 0.00 | 0.00 | 35 | 1007.5 |
| 20260504221822 | 74 | 257 | 2.6 | 6.1 | 0.00 | 0.00 | 0.00 | 33 | 1007.5 |
| 20260504220314 | 74 | 283 | 2.6 | 7.0 | 0.00 | 0.00 | 0.00 | 35 | 1007.5 |
| 20260504214818 | 74 | 273 | 4.3 | 8.7 | 0.00 | 0.00 | 0.00 | 32 | 1007.6 |
| 20260504213312 | 74 | 226 | 3.5 | 12.2 | 0.00 | 0.00 | 0.00 | 35 | 1007.7 |
| 20260504211818 | 74 | 224 | 6.1 | 10.4 | 0.00 | 0.00 | 0.00 | 31 | 1007.8 |
| 20260504210311 | 73 | 300 | 7.8 | 12.2 | 0.00 | 0.00 | 0.00 | 32 | 1007.9 |
| 20260504204824 | 73 | 248 | 7.0 | 14.8 | 0.00 | 0.00 | 0.00 | 33 | 1008.0 |
| 20260504203315 | 73 | 300 | 6.1 | 9.6 | 0.00 | 0.00 | 0.00 | 36 | 1007.9 |
| 20260504201824 | 72 | 213 | 8.7 | 14.8 | 0.00 | 0.00 | 0.00 | 35 | 1008.3 |
| 20260504200319 | 72 | 260 | 3.5 | 12.2 | 0.00 | 0.00 | 0.00 | 42 | 1008.4 |
| 20260504194850 | 72 | 269 | 5.2 | 11.3 | 0.00 | 0.00 | 0.00 | 40 | 1008.7 |
| 20260504193314 | 72 | 252 | 6.1 | 11.3 | 0.00 | 0.00 | 0.00 | 41 | 1009.0 |
| 20260504191824 | 72 | 278 | 7.8 | 11.3 | 0.00 | 0.00 | 0.00 | 36 | 1009.3 |
| 20260504190339 | 71 | 277 | 7.8 | 13.9 | 0.00 | 0.00 | 0.00 | 40 | 1009.4 |
| 20260504184851 | 71 | 241 | 7.8 | 13.0 | 0.00 | 0.00 | 0.00 | 40 | 1009.4 |
| 20260504183317 | 71 | 248 | 7.0 | 12.2 | 0.00 | 0.00 | 0.00 | 40 | 1009.7 |
| 20260504181830 | 71 | 278 | 6.1 | 13.9 | 0.00 | 0.00 | 0.00 | 43 | 1009.8 |
| 20260504180329 | 70 | 241 | 6.1 | 10.4 | 0.00 | 0.00 | 0.00 | 49 | 1009.9 |
| 20260504174830 | 69 | 232 | 4.3 | 13.9 | 0.00 | 0.00 | 0.00 | 49 | 1009.9 |
| 20260504173332 | 69 | 203 | 6.1 | 14.8 | 0.00 | 0.00 | 0.00 | 48 | 1010.1 |
| 20260504171817 | 69 | 239 | 5.2 | 10.4 | 0.00 | 0.00 | 0.00 | 49 | 1010.1 |
| 20260504170331 | 68 | 248 | 7.0 | 13.0 | 0.00 | 0.00 | 0.00 | 48 | 1010.4 |
| 20260504160327 | 65 | 215 | 7.0 | 11.3 | 0.00 | 0.00 | 0.00 | 51 | 1010.9 |
| 20260504150331 | 62 | 228 | 7.0 | 12.2 | 0.00 | 0.00 | 0.00 | 53 | 1011.3 |
| 20260504140348 | 59 | 246 | 7.0 | 13.9 | 0.00 | 0.00 | 0.00 | 55 | 1011.5 |
| 20260504130333 | 56 | 242 | 8.7 | 12.2 | 0.00 | 0.00 | 0.00 | 56 | 1012.0 |
| 20260504110314 | 51 | 217 | 4.3 | 9.6 | 0.00 | 0.00 | 0.00 | 61 | 1012.1 |
| 20260504100339 | 50 | 212 | 6.1 | 9.6 | 0.00 | 0.00 | 0.00 | 61 | 1011.9 |
| 20260504081814 | 50 | 219 | 3.5 | 8.7 | 0.00 | 0.00 | 0.00 | 60 | 1012.8 |
| 20260504080322 | 51 | 240 | 3.5 | 8.7 | 0.00 | 0.00 | 0.00 | 60 | 1012.8 |
| 20260504070321 | 50 | 245 | 2.6 | 6.1 | 0.00 | 0.00 | 0.00 | 63 | 1013.2 |
| 20260504050323 | 51 | 242 | 3.5 | 6.1 | 0.00 | 0.00 | 0.00 | 61 | 1013.6 |
| 20260504044824 | 51 | 220 | 2.6 | 6.1 | 0.00 | 0.00 | 0.00 | 58 | 1013.7 |
| 20260504043318 | 52 | 242 | 2.6 | 6.1 | 0.00 | 0.00 | 0.00 | 59 | 1013.8 |
| 20260504041825 | 52 | 246 | 5.2 | 7.8 | 0.00 | 0.00 | 0.00 | 58 | 1013.8 |
| 20260504040318 | 52 | 217 | 5.2 | 7.0 | 0.00 | 0.00 | 0.00 | 58 | 1013.8 |
| 20260504034810 | 52 | 219 | 3.5 | 7.0 | 0.00 | 0.00 | 0.00 | 58 | 1013.7 |
| 20260504033328 | 52 | 226 | 4.3 | 10.4 | 0.00 | 0.00 | 0.00 | 59 | 1013.8 |
| 20260504031815 | 52 | 226 | 4.3 | 7.0 | 0.00 | 0.00 | 0.00 | 60 | 1013.8 |
| 20260504030311 | 53 | 220 | 3.5 | 6.1 | 0.00 | 0.00 | 0.00 | 59 | 1013.8 |
| 20260504024817 | 53 | 233 | 3.5 | 6.1 | 0.00 | 0.00 | 0.00 | 58 | 1013.8 |
| 20260504023330 | 54 | 231 | 4.3 | 11.3 | 0.00 | 0.00 | 0.00 | 55 | 1013.9 |
| 20260504021822 | 55 | 264 | 5.2 | 18.2 | 0.00 | 0.00 | 0.00 | 53 | 1014.1 |
| 20260504020328 | 55 | 252 | 6.1 | 17.4 | 0.00 | 0.00 | 0.00 | 54 | 1013.9 |
| 20260504014824 | 55 | 278 | 8.7 | 15.6 | 0.00 | 0.00 | 0.00 | 54 | 1014.2 |
| 20260504013312 | 55 | 273 | 5.2 | 10.4 | 0.00 | 0.00 | 0.00 | 51 | 1014.2 |
| 20260504011826 | 55 | 267 | 6.1 | 14.8 | 0.00 | 0.00 | 0.00 | 52 | 1013.9 |
| 20260504010315 | 55 | 263 | 7.8 | 16.5 | 0.00 | 0.00 | 0.00 | 52 | 1014.1 |
| 20260504004825 | 55 | 250 | 10.4 | 20.9 | 0.00 | 0.00 | 0.00 | 51 | 1014.2 |
| 20260504003315 | 55 | 264 | 10.4 | 16.5 | 0.00 | 0.00 | 0.00 | 51 | 1014.3 |
| 20260504001826 | 55 | 273 | 10.4 | 23.5 | 0.00 | 0.00 | 0.00 | 49 | 1014.4 |
| 20260504000311 | 55 | 243 | 6.1 | 15.6 | 0.00 | 0.00 | 0.00 | 49 | 1014.3 |
| 20260503234824 | 54 | 274 | 5.2 | 13.9 | 0.00 | 0.00 | 0.00 | 49 | 1014.2 |
| 20260503233320 | 55 | 289 | 10.4 | 17.4 | 0.00 | 0.00 | 0.00 | 48 | 1014.2 |